Temp
-0 1 2 2 2 3 2 3 3 5 4 4 5 6 7 7 7 7 7 8 9 10 9 10 11 12 14 16 19 19 21 21 22 22 21 20 19 18 18 18 18 19 18 18
-1 2 2 2 3 4 4 5 4 4 4 5 6 7 7 6 7 6 6 7 7 8 10 10 10 10 11 13 16 18 19 20 22 22 21 19 18 17 17 17 16 17 17 17
-2 1 1 -1 4 4 5 5 4 4 6 7 7 7 7 7 7 6 6 6 6 6 8 9 10 9 11 12 13 16 18 17 17 19 19 18 16 15 15 15 15 16 16 16
-3 -0 -5 3 5 5 5 5 4 5 5 7 7 7 7 7 7 7 6 6 6 6 7 8 9 8 10 11 13 14 15 15 15 16 16 17 14 14 14 14 15 15 15 15
-4 -2 2 3 6 4 4 4 4 4 5 7 7 7 8 9 9 7 7 6 6 6 6 8 8 8 9 9 11 11 11 12 13 14 14 14 14 14 15 14 14 14 14 15
-4 -0 -2 3 4 5 5 4 4 3 4 6 7 5 6 8 9 7 8 7 7 6 6 7 6 7 8 9 9 11 11 11 12 13 13 13 13 14 14 14 14 15 14 14
-2 -1 0 3 4 5 4 3 1 2 4 5 6 6 8 8 9 9 8 8 7 7 6 4 5 6 7 8 8 9 9 10 12 12 13 13 13 13 13 13 13 13 13 14
-0 -2 -2 3 4 3 2 2 2 2 4 4 6 7 8 8 8 8 8 8 7 7 7 6 4 6 6 7 7 8 9 9 10 11 11 12 12 13 13 13 13 13 12 12
-0 0 2 4 3 4 3 3 2 2 4 5 6 6 6 6 7 7 7 7 7 7 6 7 6 4 5 5 6 7 8 8 9 9 10 10 10 11 11 12 12 12 12 12
1 2 2 3 3 4 3 4 4 4 4 4 4 4 5 6 6 6 6 6 6 7 6 6 6 5 6 5 5 5 6 7 7 8 8 9 9 9 10 11 11 11 11 11
1 2 2 3 3 3 4 3 4 3 3 3 3 4 3 4 5 5 5 6 5 6 6 6 6 6 5 6 5 6 6 6 7 7 8 8 8 8 8 9 9 10 9 10
1 2 1 2 3 2 3 2 2 2 2 3 3 2 2 2 2 2 3 4 5 5 5 6 6 6 6 6 6 6 7 8 6 7 6 8 8 8 8 8 8 8 8 8
1 2 2 2 2 2 2 1 1 1 1 0 1 1 1 1 1 1 2 2 3 3 4 4 5 6 6 6 6 7 7 8 8 7 7 6 7 8 7 7 8 8 8 8
1 1 0 0 -1 -1 0 0 0 0 -1 -1 -1 -0 -0 -0 0 0 0 -0 0 0 1 2 3 4 5 6 5 6 7 8 8 9 9 8 8 8 8 8 7 7 7 7
1 -0 -1 -1 -1 -0 0 0 -0 -1 -2 -2 -2 -2 -2 -2 -1 -1 0 0 -1 -2 -1 -1 -0 1 2 4 4 5 5 7 7 8 8 8 9 9 8 7 7 6 6 6
-1 -2 -1 -2 -2 -2 -3 -3 -3 -3 -3 -2 -3 -4 -4 -5 -5 -3 -2 -2 -3 -2 -3 -4 -4 -2 -0 0 2 4 4 5 6 6 7 7 8 8 9 9 9 7 5 6
-3 -2 -3 -3 -4 -4 -4 -4 -4 -4 -4 -5 -5 -5 -5 -5 -5 -5 -3 -4 -4 -3 -2 -3 -3 -4 -3 -3 -2 1 3 4 4 5 5 6 6 7 8 8 9 9 8 6
-4 -4 -4 -4 -4 -4 -4 -5 -5 -5 -5 -5 -5 -5 -5 -5 -5 -6 -6 -6 -4 -2 -2 -2 -3 -3 -5 -4 -3 -3 -1 2 3 4 4 5 6 6 6 7 8 8 8 8
-4 -4 -4 -5 -5 -5 -5 -5 -5 -5 -5 -5 -5 -5 -6 -5 -6 -5 -6 -6 -6 -6 -3 -4 -3 -3 -4 -5 -4 -4 -3 -2 0 3 4 4 4 5 6 6 7 7 7 7
-4 -4 -5 -5 -5 -5 -5 -6 -5 -5 -5 -6 -6 -6 -6 -5 -5 -5 -5 -6 -3 -5 -5 -5 -5 -4 -4 -4 -4 -4 -3 -2 -2 -1 1 3 4 4 5 6 6 6 7 7
-4 -5 -5 -5 -5 -5 -6 -6 -6 -6 -5 -5 -5 -5 -5 -4 -4 -5 -6 -6 -2 -4 -5 -5 -5 -5 -5 -4 -4 -5 -4 -3 -3 -2 -1 1 2 4 4 5 5 5 5 6
-5 -5 -5 -5 -5 -5 -6 -6 -6 -6 -6 -5 -5 -4 -5 -5 -5 -4 -4 -6 -4 -4 -5 -5 -5 -6 -5 -5 -6 -6 -5 -4 -3 -3 -2 -1 1 2 4 5 4 5 5 6
-5 -5 -5 -5 -5 -5 -5 -5 -6 -7 -7 -6 -5 -5 -6 -6 -6 -6 -5 -4 -5 -5 -6 -5 -6 -6 -5 -6 -5 -5 -6 -6 -5 -4 -3 -2 -1 0 3 5 5 6 6 6
-4 -4 -4 -5 -5 -5 -5 -6 -6 -7 -7 -7 -7 -6 -6 -6 -6 -5 -5 -5 -4 -5 -5 -5 -6 -6 -5 -6 -6 -5 -6 -5 -5 -5 -4 -2 -2 -1 0 1 4 5 6 6
-5 -5 -5 -5 -5 -6 -6 -6 -6 -6 -7 -7 -7 -7 -6 -6 -6 -5 -5 -5 -5 -5 -5 -5 -6 -5 -6 -5 -5 -5 -5 -5 -4 -4 -4 -3 -2 -1 -0 0 2 3 4 4
-6 -7 -6 -6 -6 -6 -6 -6 -6 -6 -6 -7 -7 -7 -7 -6 -6 -6 -5 -5 -5 -5 -5 -6 -6 -6 -6 -5 -5 -5 -5 -5 -5 -5 -5 -4 -3 -2 -1 -0 0 1 1 2
-7 -7 -7 -6 -6 -6 -6 -6 -7 -7 -7 -7 -7 -7 -7 -6 -6 -6 -5 -5 -5 -5 -5 -6 -6 -6 -6 -5 -5 -5 -5 -5 -5 -4 -4 -4 -3 -3 -2 -1 -1 -1 -1 -1
Height
1455 1448 1438 1431 1425 1413 1416 1411 1410 1388 1391 1383 1372 1368 1362 1355 1353 1350 1346 1341 1340 1341 1342 1342 1343 1344 1345 1347 1351 1356 1360 1362 1363 1369 1372 1376 1383 1389 1394 1397 1403 1408 1415 1422
1452 1439 1433 1425 1415 1409 1397 1394 1398 1394 1386 1377 1374 1366 1361 1358 1355 1354 1351 1347 1345 1345 1341 1341 1342 1341 1341 1339 1341 1346 1348 1351 1357 1360 1362 1365 1371 1378 1383 1387 1393 1399 1405 1412
1454 1439 1435 1434 1409 1406 1395 1387 1391 1391 1381 1373 1373 1366 1362 1360 1356 1355 1354 1351 1349 1349 1349 1347 1342 1338 1336 1334 1335 1335 1337 1342 1346 1349 1352 1356 1361 1368 1373 1379 1385 1391 1397 1403
1458 1444 1471 1411 1402 1400 1398 1395 1394 1386 1380 1372 1371 1363 1360 1360 1358 1354 1355 1354 1354 1353 1351 1350 1347 1340 1336 1332 1329 1327 1328 1331 1336 1340 1344 1348 1355 1361 1367 1372 1377 1382 1388 1394
1462 1448 1424 1406 1399 1404 1399 1398 1397 1395 1385 1375 1368 1367 1366 1361 1354 1356 1357 1353 1352 1354 1353 1351 1350 1345 1340 1333 1330 1330 1327 1328 1332 1336 1339 1342 1348 1354 1360 1366 1371 1375 1381 1388
1455 1438 1447 1406 1401 1396 1397 1397 1396 1396 1389 1378 1371 1374 1368 1360 1358 1356 1356 1354 1354 1352 1349 1350 1352 1350 1345 1338 1335 1331 1332 1333 1333 1335 1335 1340 1344 1349 1353 1360 1365 1369 1375 1381
1441 1437 1422 1405 1402 1393 1397 1406 1398 1394 1388 1380 1378 1371 1364 1361 1361 1357 1357 1354 1352 1350 1354 1353 1354 1350 1348 1344 1341 1341 1338 1334 1332 1330 1331 1336 1341 1346 1349 1356 1360 1365 1372 1377
1429 1437 1439 1403 1402 1406 1404 1398 1397 1392 1387 1381 1374 1371 1366 1364 1361 1358 1359 1355 1352 1353 1356 1354 1351 1350 1348 1346 1348 1345 1342 1337 1336 1334 1333 1334 1339 1342 1345 1352 1356 1363 1368 1372
1425 1417 1404 1402 1404 1401 1399 1395 1394 1391 1383 1380 1376 1371 1368 1365 1362 1362 1361 1357 1353 1354 1354 1354 1348 1349 1349 1347 1346 1347 1345 1343 1339 1338 1337 1337 1340 1342 1344 1349 1354 1359 1364 1368
1420 1403 1403 1400 1399 1399 1397 1393 1389 1387 1383 1379 1374 1370 1367 1366 1364 1363 1362 1359 1356 1355 1357 1353 1351 1351 1348 1346 1344 1346 1346 1344 1341 1340 1340 1340 1341 1344 1345 1347 1352 1357 1362 1363
1408 1400 1399 1395 1397 1395 1392 1388 1385 1384 1382 1380 1374 1371 1369 1368 1366 1364 1361 1358 1356 1354 1355 1354 1352 1354 1350 1349 1344 1344 1343 1342 1341 1341 1342 1342 1342 1344 1344 1348 1352 1356 1359 1360
1402 1397 1397 1395 1395 1394 1391 1388 1385 1383 1379 1377 1374 1371 1368 1366 1364 1362 1358 1355 1353 1352 1352 1352 1349 1349 1350 1347 1346 1345 1342 1340 1338 1339 1342 1344 1344 1345 1344 1347 1350 1352 1355 1358
1397 1394 1391 1388 1389 1388 1388 1386 1383 1382 1379 1376 1372 1369 1366 1362 1359 1357 1355 1351 1348 1345 1346 1344 1344 1345 1344 1344 1344 1344 1344 1342 1338 1335 1339 1342 1344 1342 1344 1345 1346 1349 1353 1357
1394 1389 1386 1384 1383 1383 1383 1382 1380 1379 1378 1375 1371 1368 1363 1359 1356 1354 1350 1347 1343 1340 1339 1338 1337 1337 1336 1334 1336 1338 1339 1339 1338 1339 1339 1339 1341 1342 1342 1341 1343 1345 1350 1356
1390 1389 1387 1385 1383 1380 1378 1375 1374 1374 1372 1370 1368 1365 1362 1358 1354 1349 1345 1341 1338 1336 1333 1331 1329 1327 1327 1328 1328 1328 1330 1331 1332 1334 1337 1336 1337 1339 1339 1338 1340 1342 1346 1349
1388 1387 1385 1383 1381 1378 1376 1374 1371 1367 1365 1363 1361 1359 1357 1355 1351 1346 1342 1337 1332 1326 1325 1323 1323 1320 1320 1318 1316 1317 1319 1322 1323 1325 1327 1328 1331 1333 1334 1335 1335 1336 1337 1342
1387 1386 1384 1382 1380 1378 1376 1373 1371 1367 1363 1360 1358 1356 1353 1349 1345 1341 1337 1333 1327 1322 1318 1315 1313 1312 1311 1310 1309 1309 1309 1310 1312 1314 1316 1317 1319 1323 1325 1329 1331 1330 1332 1335
1386 1386 1385 1383 1380 1376 1373 1370 1366 1363 1361 1357 1353 1349 1346 1343 1340 1335 1331 1326 1321 1317 1314 1309 1306 1303 1302 1301 1301 1299 1298 1298 1300 1303 1307 1307 1309 1313 1315 1318 1322 1325 1326 1327
1384 1383 1382 1381 1378 1375 1372 1368 1364 1361 1357 1353 1350 1346 1343 1339 1334 1330 1325 1321 1316 1311 1307 1303 1299 1296 1293 1293 1292 1290 1290 1290 1290 1290 1293 1297 1299 1301 1304 1308 1314 1317 1319 1320
1381 1380 1379 1378 1376 1373 1369 1366 1362 1358 1354 1350 1347 1343 1338 1334 1330 1326 1322 1317 1311 1307 1302 1298 1294 1289 1284 1280 1280 1281 1279 1278 1279 1279 1281 1285 1289 1291 1295 1298 1303 1310 1310 1310
1378 1377 1375 1374 1372 1370 1366 1362 1358 1354 1351 1348 1344 1339 1334 1330 1325 1320 1314 1308 1304 1300 1294 1289 1284 1279 1276 1272 1269 1268 1269 1268 1268 1268 1269 1272 1276 1280 1283 1286 1293 1296 1301 1304
1376 1373 1371 1370 1368 1365 1363 1359 1355 1351 1347 1343 1340 1336 1331 1326 1322 1316 1311 1306 1297 1292 1286 1280 1274 1270 1266 1263 1260 1257 1257 1256 1257 1258 1260 1261 1264 1268 1272 1277 1280 1283 1289 1296
1374 1372 1369 1367 1364 1362 1359 1356 1352 1349 1345 1340 1336 1332 1328 1324 1319 1313 1303 1300 1295 1288 1281 1274 1267 1261 1256 1252 1248 1245 1243 1244 1246 1248 1249 1251 1253 1257 1261 1264 1268 1275 1281 1289
1369 1367 1365 1363 1361 1357 1355 1352 1348 1345 1342 1338 1334 1330 1326 1319 1313 1310 1303 1294 1287 1280 1273 1266 1259 1253 1247 1241 1236 1233 1232 1232 1234 1236 1238 1241 1245 1248 1252 1257 1261 1268 1274 1281
1364 1362 1361 1359 1356 1353 1350 1347 1344 1341 1337 1333 1330 1326 1322 1318 1312 1302 1297 1290 1284 1276 1267 1260 1253 1245 1239 1234 1229 1225 1223 1222 1222 1224 1227 1231 1236 1240 1243 1248 1253 1261 1267 1273
1358 1358 1356 1355 1352 1349 1346 1344 1340 1336 1332 1327 1324 1320 1315 1311 1305 1299 1292 1285 1278 1270 1262 1253 1246 1239 1232 1226 1222 1218 1215 1214 1214 1216 1218 1221 1226 1231 1235 1241 1247 1254 1260 1265
1355 1354 1352 1350 1348 1345 1343 1340 1337 1333 1329 1325 1319 1315 1310 1305 1299 1293 1286 1280 1273 1266 1257 1249 1241 1234 1227 1221 1216 1212 1209 1207 1206 1207 1209 1212 1216 1221 1227 1233 1239 1245 1252 1257
Wind_Speed
11 18 19 17 17 18 15 15 8 11 18 19 12 13 10 14 15 18 22 28 30 28 25 23 15 13 17 19 26 32 40 43 43 42 50 56 57 59 60 62 62 62 59 58
17 13 8 18 19 17 9 6 8 12 15 6 15 20 13 11 16 14 18 21 22 27 29 23 29 24 13 15 18 26 40 47 46 47 48 52 54 56 57 59 58 57 55 55
7 7 14 9 3 6 12 4 3 6 13 14 9 10 9 13 10 8 14 21 19 23 28 32 32 32 17 13 11 17 34 45 48 49 50 50 50 51 53 53 52 51 50 49
5 3 3 6 12 5 10 9 10 14 19 15 10 18 20 18 3 4 16 17 20 18 22 27 34 36 24 16 10 11 17 31 39 46 48 45 43 44 45 46 46 46 45 45
2 3 9 11 2 4 7 8 11 17 19 19 8 9 9 10 14 2 7 19 20 21 17 20 28 32 32 29 16 12 9 18 29 37 39 39 38 38 39 40 40 41 40 41
1 4 5 4 10 20 8 3 16 17 17 18 3 3 5 12 12 10 7 8 13 28 22 19 25 27 29 32 33 17 14 2 16 25 27 29 32 33 34 35 36 34 36 34
6 4 6 4 10 18 2 5 24 26 24 20 7 7 16 11 8 11 8 7 9 14 27 17 23 26 24 28 33 32 13 10 5 3 14 23 26 27 29 29 30 29 30 31
3 3 5 2 11 4 3 8 17 27 23 21 19 13 16 17 16 11 10 11 8 7 12 19 24 25 25 21 24 29 28 14 8 3 4 7 13 18 21 23 24 26 27 28
3 4 7 18 7 20 16 13 14 23 26 15 16 18 18 18 19 18 17 20 17 12 13 21 22 25 27 24 21 23 25 27 15 6 2 3 6 11 15 19 19 23 24 24
3 4 6 20 23 9 15 16 19 17 13 17 16 17 19 20 21 21 21 20 18 16 12 16 17 20 20 24 26 25 25 22 22 15 7 3 2 6 9 12 16 19 22 19
11 15 13 7 10 23 31 9 7 9 9 17 18 19 19 21 22 23 23 23 23 21 19 18 14 12 15 19 22 26 28 24 18 18 15 8 6 5 6 8 11 12 14 19
9 16 10 14 21 20 9 7 10 14 16 17 18 20 21 22 23 25 27 26 26 25 25 24 22 18 11 13 17 19 23 22 18 18 14 13 11 10 7 9 9 10 11 12
17 26 29 31 26 16 8 10 14 15 14 16 17 19 21 23 24 26 26 27 28 29 29 30 30 27 23 15 17 17 16 16 17 14 18 17 15 12 12 11 9 8 11 14
21 17 11 5 3 6 9 15 18 17 14 15 17 19 21 24 26 26 27 28 29 30 30 31 31 31 29 27 21 21 20 15 13 13 9 11 17 13 9 10 12 13 11 11
11 8 5 8 11 14 16 20 21 19 18 20 19 19 20 23 26 27 28 29 29 29 29 29 31 32 31 29 27 25 23 23 19 18 18 16 14 15 17 12 11 11 16 17
14 12 12 13 13 16 17 18 20 22 25 23 21 22 22 22 24 25 27 29 32 36 34 33 33 31 29 30 31 32 31 27 27 28 26 24 24 22 21 21 19 17 16 19
9 8 14 15 16 15 15 16 16 22 21 20 22 24 24 24 26 27 28 29 31 34 35 35 37 32 29 26 29 32 36 36 32 28 32 32 29 30 26 26 25 22 19 20
5 6 8 12 14 17 18 19 18 17 19 22 25 26 27 26 27 30 31 33 34 34 34 34 35 32 31 29 30 29 32 38 40 39 34 30 34 34 33 33 30 27 24 22
5 7 9 11 14 15 17 17 18 20 21 22 25 27 28 28 29 31 32 33 35 36 34 31 34 34 33 30 28 29 30 31 36 41 41 37 34 34 36 37 37 31 30 28
7 9 10 12 14 16 18 19 19 20 22 22 24 26 29 29 30 33 32 32 34 34 33 33 33 35 36 35 32 30 30 32 30 33 37 40 39 37 38 38 37 36 36 33
10 11 14 15 17 18 19 19 22 24 22 21 23 26 28 30 31 33 35 36 35 35 36 37 34 33 31 33 34 30 32 31 32 33 34 37 40 39 38 41 41 39 39 34
12 15 17 18 19 20 19 22 21 22 25 24 23 25 27 29 31 34 33 32 37 37 37 38 37 36 34 31 33 33 32 32 32 31 29 31 37 41 41 44 47 41 35 31
13 15 17 20 21 21 21 22 20 21 24 23 24 25 25 27 30 32 38 35 35 36 35 37 36 34 32 30 30 33 34 36 34 34 33 30 31 36 41 40 38 35 35 34
17 15 18 20 21 22 23 22 21 22 21 23 25 23 23 28 32 29 30 34 35 36 37 36 34 32 30 29 29 30 32 33 35 33 33 31 31 33 35 38 40 41 39 36
15 15 16 19 21 21 22 22 23 22 23 25 26 27 25 25 28 33 31 31 33 34 36 34 31 30 29 26 25 25 28 30 32 34 35 32 32 32 32 34 38 39 37 35
15 14 16 16 19 20 21 22 23 23 25 28 29 30 29 28 28 31 29 29 32 34 35 33 31 29 28 26 24 22 22 25 27 29 32 32 32 32 33 33 33 34 34 34
13 15 17 18 18 18 17 19 21 22 23 24 29 30 30 29 28 30 29 29 32 33 34 32 30 28 26 25 24 21 18 17 22 27 29 29 33 35 34 35 35 35 34 33
Wind_Direction
275 305 289 285 284 297 281 266 260 311 308 301 319 331 336 352 3 12 17 30 41 36 27 12 4 342 283 261 244 236 239 239 238 242 243 242 242 242 242 242 243 244 242 241
295 280 315 311 302 299 294 259 253 283 299 293 314 317 323 357 354 5 13 13 17 19 24 14 15 354 318 299 264 238 232 238 239 239 242 240 240 240 240 241 240 242 243 243
276 323 322 311 223 292 316 264 246 287 289 281 291 301 324 330 330 356 11 8 358 9 17 13 11 7 355 341 309 246 235 236 238 238 237 238 238 236 236 238 239 241 242 242
269 325 343 250 306 265 359 19 357 329 325 286 276 292 320 315 316 2 24 10 2 350 2 5 9 28 21 10 344 310 255 237 235 236 235 234 229 231 236 238 241 241 241 242
213 221 286 294 35 345 359 309 5 346 332 335 309 309 306 345 4 36 18 19 3 351 341 344 2 12 25 31 17 357 280 245 232 232 229 229 231 230 230 237 237 236 237 237
132 242 233 267 343 328 326 230 348 332 324 332 331 350 295 339 359 18 21 346 22 7 337 323 343 356 9 25 29 14 4 227 221 221 220 224 224 224 225 225 225 228 230 236
219 258 286 280 330 321 172 350 313 317 318 322 312 280 305 319 312 338 0 350 340 12 4 352 351 355 0 27 26 19 2 1 340 187 208 220 219 221 220 221 223 225 228 230
185 211 291 209 349 360 262 310 314 311 315 312 320 360 22 42 44 13 320 330 324 326 343 349 359 2 2 16 20 23 17 7 360 36 211 199 211 213 212 220 221 227 226 228
213 242 272 305 271 303 274 282 307 310 336 4 28 18 30 27 34 38 38 37 22 308 306 328 342 358 358 351 352 4 17 16 15 356 34 155 205 215 212 217 225 221 223 229
269 254 256 291 302 318 334 306 299 313 359 3 14 9 6 5 4 3 5 10 14 18 7 344 336 332 340 344 349 337 341 355 11 8 339 323 215 213 210 219 223 226 227 226
269 286 301 291 331 333 327 333 356 357 334 340 348 349 347 343 342 339 337 337 341 342 340 343 359 344 343 334 323 316 321 328 338 3 350 326 284 256 238 234 243 251 245 241
269 284 269 288 310 327 326 329 339 342 337 336 338 335 333 332 332 330 327 325 322 320 317 315 316 319 323 319 334 317 302 308 314 322 338 327 313 277 256 252 252 251 254 252
272 287 288 289 295 293 287 323 328 330 334 329 332 331 329 329 329 326 323 320 317 315 310 306 304 299 300 303 296 307 309 291 291 280 288 300 302 301 274 261 244 251 257 255
295 301 302 354 9 342 330 324 325 327 329 335 334 333 333 332 329 328 328 325 321 315 309 304 301 297 292 289 286 278 281 285 272 281 257 262 278 276 270 270 270 263 250 249
286 315 309 314 308 322 319 317 320 325 332 333 335 337 336 334 332 330 331 329 324 321 317 312 305 299 294 285 277 270 265 262 260 258 273 277 272 271 280 264 253 253 251 247
287 305 305 325 331 329 329 329 329 326 332 331 335 334 331 327 325 328 330 330 327 323 321 317 314 310 302 294 281 269 261 256 254 253 254 255 262 258 258 266 270 264 254 248
330 332 332 333 334 331 324 321 316 314 322 326 324 324 323 324 324 326 328 329 326 322 321 321 319 311 306 299 289 279 266 258 251 253 250 250 250 249 254 251 255 258 261 256
324 329 320 321 322 320 319 315 321 326 324 325 327 327 326 322 320 324 324 325 325 324 324 325 321 312 306 300 297 288 273 259 253 250 250 250 248 249 250 249 248 249 250 252
340 333 333 331 331 319 315 318 322 322 326 327 327 323 326 322 325 325 327 325 323 319 328 322 315 311 307 299 291 288 280 267 255 249 248 250 250 248 247 248 244 244 246 247
316 322 325 328 329 333 324 318 319 319 325 327 325 324 324 326 326 327 325 319 322 323 324 318 310 304 304 301 291 277 277 272 261 252 247 243 244 248 244 241 237 241 243 244
312 318 322 326 325 327 329 324 323 321 322 325 325 327 326 325 327 329 327 320 329 327 324 318 312 307 303 299 295 278 270 270 264 263 255 247 240 242 244 240 240 245 244 242
308 318 321 323 322 320 328 327 328 324 323 321 322 325 323 324 327 326 325 320 327 326 324 318 314 311 306 299 289 279 271 269 269 265 258 254 244 237 238 241 243 243 237 232
303 307 311 321 322 318 320 328 324 325 322 324 323 325 324 324 327 326 322 328 327 327 324 317 314 312 307 299 288 281 272 261 258 262 261 253 243 241 237 238 229 227 230 233
289 296 306 314 317 314 317 332 326 326 324 326 327 324 324 329 324 328 325 326 328 330 327 323 319 315 311 301 292 281 276 267 259 256 256 254 241 234 233 230 228 229 231 235
288 292 300 304 309 312 318 329 325 328 328 328 330 331 334 330 325 329 328 331 332 333 330 326 323 321 317 312 303 288 273 270 262 254 254 245 234 231 229 230 229 227 225 225
298 297 293 300 306 303 310 319 322 327 329 329 329 332 334 334 332 334 333 336 338 340 335 333 330 327 322 320 314 303 283 267 259 254 248 239 232 227 224 221 223 228 231 236
298 295 298 299 299 306 313 315 319 324 328 329 326 332 335 334 335 340 343 342 343 343 341 341 338 334 330 328 324 316 303 274 256 249 246 243 234 230 228 229 230 235 239 244